Location: Carrer del Canonge
(41.4901°N, 2.2931°E)
Time: 00:45:22
(UTC+00:00)

MOS 1 Rocket - Visible Passes

Search period start: 20 January 2021 00:00
Search period end: 30 January 2021 00:00
Orbit: 614 x 831 km, 97.4° (Epoch: 19 January)

Date Brightness Start Highest point End Pass type
(mag) Time Alt. Az. Time Alt. Az. Time Alt. Az.
20 Jan 3.8 05:02:52 10° SSE 05:07:55 63° ENE 05:12:39 10° N visible
20 Jan 4.3 18:43:46 10° N 18:47:48 40° WNW 18:51:48 10° SW visible
21 Jan 5.7 04:15:06 10° ESE 04:18:53 22° ENE 04:22:32 10° NNE visible
21 Jan 3.8 05:52:03 10° S 05:56:53 43° W 06:01:27 10° NNW visible
21 Jan 3.1 17:54:20 10° NNE 17:58:34 57° E 18:02:46 10° S visible
21 Jan 6.0 19:34:20 10° NW 19:36:20 13° WNW 19:38:18 10° W visible
22 Jan 3.8 05:02:37 10° SSE 05:07:36 63° ENE 05:12:18 10° N visible
22 Jan 4.4 18:43:25 10° N 18:47:26 40° WNW 18:51:26 10° SW visible
23 Jan 5.6 04:14:51 10° ESE 04:18:34 22° ENE 04:22:10 10° NNE visible
23 Jan 3.7 05:51:50 10° S 05:56:34 42° W 06:01:05 10° NNW visible
23 Jan 3.1 17:53:58 10° NNE 17:58:12 57° E 18:02:26 10° S visible
23 Jan 6.0 19:34:02 10° NW 19:35:58 13° WNW 19:37:55 10° W visible
24 Jan 3.7 05:02:22 10° SSE 05:07:17 64° ENE 05:11:56 10° N visible
24 Jan 4.4 18:43:05 10° N 18:47:05 39° WNW 18:51:05 10° SW visible
25 Jan 5.6 04:14:35 10° ESE 04:18:15 22° ENE 04:21:48 10° NNE visible
25 Jan 3.7 05:51:36 10° SSW 05:56:16 41° W 06:00:42 10° NNW visible
25 Jan 3.1 17:53:37 10° NNE 17:57:50 58° E 18:02:06 10° S visible
25 Jan 6.0 19:33:43 10° NW 19:35:37 13° WNW 19:37:32 10° W visible
26 Jan 3.7 05:02:06 10° SSE 05:06:58 64° ENE 05:11:33 10° N visible
26 Jan 4.4 18:42:44 10° N 18:46:43 39° WNW 18:50:45 10° SW visible
27 Jan 5.6 04:14:18 10° ESE 04:17:56 22° ENE 04:21:25 10° NNE visible
27 Jan 3.7 05:51:22 10° SSW 05:55:57 40° W 06:00:19 10° NNW visible
27 Jan 3.1 17:53:15 10° NNE 17:57:29 59° E 18:01:47 10° S visible
27 Jan 6.1 19:33:23 10° NW 19:35:15 13° WNW 19:37:09 10° W visible
28 Jan 3.6 05:01:51 10° SSE 05:06:39 65° ENE 05:11:11 10° N visible
28 Jan 4.5 18:42:22 10° N 18:46:21 39° WNW 18:50:24 10° SW visible
29 Jan 5.6 04:14:02 10° ESE 04:17:36 21° ENE 04:21:02 10° NNE visible
29 Jan 3.7 05:51:07 10° SSW 05:55:38 39° W 05:59:55 10° NNW visible
29 Jan 3.1 17:52:52 10° NNE 17:57:08 60° E 18:01:28 10° S visible
29 Jan 6.1 19:33:02 10° NW 19:34:55 13° WNW 19:36:47 10° W visible
